• In Hungary
  • List of Countries
  • For 7 days
  • Water Temperature
  • Satellite Maps
  • Weather Map
  • News
  • Weather Widgets
  • user-avatar
    Login

    Hourly Weather Darwin

    Today, 21 August, Tuesday

    Time Temperature Precipitation Wind Pressure Humidity
    00:00 +24°C° 0 mm 3 mps 761 mmHg 25%
    01:00 +23°C° 0 mm 4 mps 760 mmHg 29%
    02:00 +22°C° 0 mm 4 mps 760 mmHg 32%
    03:00 +22°C° 0 mm 5 mps 760 mmHg 35%
    04:00 +21°C° 0 mm 5 mps 760 mmHg 40%
    05:00 +21°C° 0 mm 5 mps 760 mmHg 45%
    06:00 +20°C° 0 mm 4 mps 760 mmHg 49%
    07:00 +22°C° 0 mm 5 mps 760 mmHg 46%
    08:00 +25°C° 0 mm 5 mps 761 mmHg 43%
    09:00 +27°C° 0 mm 5 mps 761 mmHg 32%
    10:00 +29°C° 0 mm 4 mps 761 mmHg 29%
    11:00 +33°C° 0 mm 4 mps 760 mmHg 27%
    12:00 +35°C° 0 mm 4 mps 760 mmHg 24%
    13:00 +35°C° 0 mm 4 mps 759 mmHg 24%
    14:00 +36°C° 0 mm 4 mps 758 mmHg 23%
    15:00 +36°C° 0 mm 3 mps 758 mmHg 25%
    16:00 +34°C° 0 mm 3 mps 758 mmHg 30%
    17:00 +33°C° 0 mm 3 mps 758 mmHg 34%
    18:00 +30°C° 0 mm 3 mps 758 mmHg 38%
    19:00 +29°C° 0 mm 2 mps 758 mmHg 44%
    20:00 +27°C° 0 mm 2 mps 759 mmHg 49%
    21:00 +26°C° 0 mm 2 mps 759 mmHg 55%
    22:00 +25°C° 0 mm 2 mps 759 mmHg 55%
    23:00 +25°C° 0 mm 2 mps 760 mmHg 55%

    Tomorrow, 22 August, Wednesday

    Time Temperature Precipitation Wind Pressure Humidity
    00:00 +24°C° 0 mm 1 mps 760 mmHg 56%
    01:00 +24°C° 0 mm 1 mps 760 mmHg 55%
    02:00 +24°C° 0 mm 1 mps 760 mmHg 54%
    03:00 +24°C° 0 mm 1 mps 760 mmHg 53%
    04:00 +23°C° 0 mm 1 mps 760 mmHg 54%
    05:00 +23°C° 0 mm 1 mps 760 mmHg 55%
    06:00 +23°C° 0 mm 2 mps 760 mmHg 56%
    07:00 +25°C° 0 mm 2 mps 760 mmHg 55%
    08:00 +27°C° 0 mm 3 mps 760 mmHg 54%
    09:00 +29°C° 0 mm 3 mps 760 mmHg 53%
    10:00 +31°C° 0 mm 3 mps 760 mmHg 47%
    11:00 +34°C° 0 mm 3 mps 760 mmHg 40%
    12:00 +36°C° 0 mm 3 mps 759 mmHg 34%
    13:00 +36°C° 0 mm 4 mps 759 mmHg 35%
    14:00 +36°C° 0 mm 4 mps 758 mmHg 35%
    15:00 +36°C° 0 mm 4 mps 758 mmHg 36%
    16:00 +34°C° 0 mm 4 mps 758 mmHg 41%
    17:00 +33°C° 0 mm 4 mps 758 mmHg 45%
    18:00 +30°C° 0 mm 3 mps 758 mmHg 50%
    19:00 +29°C° 0 mm 3 mps 758 mmHg 56%
    20:00 +28°C° 0 mm 3 mps 759 mmHg 62%
    21:00 +27°C° 0 mm 3 mps 759 mmHg 68%
    22:00 +27°C° 0 mm 3 mps 759 mmHg 70%
    23:00 +26°C° 0 mm 3 mps 759 mmHg 73%

    Day after tomorrow, 23 August, Thursday

    Time Temperature Precipitation Wind Pressure Humidity
    00:00 +26°C° 0 mm 2 mps 760 mmHg 75%
    01:00 +26°C° 0 mm 2 mps 759 mmHg 75%
    02:00 +25°C° 0 mm 1 mps 759 mmHg 76%
    03:00 +25°C° 0 mm 1 mps 759 mmHg 76%
    04:00 +24°C° 0 mm 1 mps 759 mmHg 77%
    05:00 +24°C° 0 mm 1 mps 759 mmHg 78%
    06:00 +24°C° 0 mm 1 mps 759 mmHg 78%
    07:00 +26°C° 0 mm 1 mps 760 mmHg 71%
    08:00 +28°C° 0 mm 1 mps 760 mmHg 63%
    09:00 +30°C° 0 mm 1 mps 761 mmHg 55%
    10:00 +32°C° 0 mm 2 mps 760 mmHg 49%
    11:00 +35°C° 0 mm 2 mps 760 mmHg 42%
    12:00 +37°C° 0 mm 2 mps 760 mmHg 36%
    13:00 +37°C° 0 mm 3 mps 759 mmHg 37%
    14:00 +36°C° 0 mm 3 mps 758 mmHg 38%
    15:00 +36°C° 0 mm 3 mps 757 mmHg 39%
    16:00 +34°C° 0 mm 3 mps 757 mmHg 43%
    17:00 +33°C° 0 mm 3 mps 757 mmHg 48%
    18:00 +31°C° 0 mm 3 mps 757 mmHg 52%
    19:00 +30°C° 0 mm 3 mps 758 mmHg 56%
    20:00 +28°C° 0 mm 3 mps 759 mmHg 59%
    21:00 +27°C° 0 mm 3 mps 759 mmHg 63%
    22:00 +27°C° 0 mm 3 mps 759 mmHg 63%
    23:00 +26°C° 0 mm 2 mps 759 mmHg 62%

    24 August, Friday

    Time Temperature Precipitation Wind Pressure Humidity
    00:00 +26°C° 0 mm 2 mps 760 mmHg 62%
    01:00 +25°C° 0 mm 2 mps 759 mmHg 63%
    02:00 +25°C° 0 mm 1 mps 759 mmHg 63%
    03:00 +25°C° 0 mm 1 mps 758 mmHg 63%
    04:00 +24°C° 0 mm 1 mps 759 mmHg 64%
    05:00 +24°C° 0 mm 1 mps 759 mmHg 66%
    06:00 +24°C° 0 mm 1 mps 759 mmHg 67%
    07:00 +26°C° 0 mm 1 mps 759 mmHg 59%
    08:00 +29°C° 0 mm 1 mps 760 mmHg 51%
    09:00 +31°C° 0 mm 1 mps 760 mmHg 43%
    10:00 +32°C° 0 mm 1 mps 760 mmHg 38%
    11:00 +35°C° 0 mm 2 mps 759 mmHg 34%
    12:00 +36°C° 0 mm 2 mps 759 mmHg 29%
    13:00 +36°C° 0 mm 3 mps 758 mmHg 29%
    14:00 +37°C° 0 mm 3 mps 757 mmHg 29%
    15:00 +37°C° 0 mm 4 mps 757 mmHg 28%
    16:00 +35°C° 0 mm 4 mps 757 mmHg 32%
    17:00 +34°C° 0 mm 4 mps 757 mmHg 36%
    18:00 +32°C° 0 mm 4 mps 757 mmHg 40%
    19:00 +29°C° 0 mm 4 mps 758 mmHg 44%
    20:00 +28°C° 0 mm 3 mps 758 mmHg 47%
    21:00 +26°C° 0 mm 3 mps 759 mmHg 50%
    22:00 +26°C° 0 mm 2 mps 759 mmHg 50%
    23:00 +26°C° 0 mm 2 mps 759 mmHg 51%

    25 August, Saturday

    Time Temperature Precipitation Wind Pressure Humidity
    00:00 +25°C° 0 mm 2 mps 759 mmHg 51%
    01:00 +25°C° 0 mm 1 mps 758 mmHg 51%
    02:00 +24°C° 0 mm 1 mps 758 mmHg 51%
    03:00 +24°C° 0 mm 1 mps 758 mmHg 51%
    04:00 +24°C° 0 mm 1 mps 758 mmHg 52%
    05:00 +23°C° 0 mm 1 mps 758 mmHg 53%
    06:00 +23°C° 0 mm 1 mps 758 mmHg 53%
    07:00 +26°C° 0 mm 1 mps 759 mmHg 46%
    08:00 +28°C° 0 mm 1 mps 759 mmHg 39%
    09:00 +31°C° 0 mm 1 mps 759 mmHg 33%
    10:00 +32°C° 0 mm 2 mps 759 mmHg 30%
    11:00 +35°C° 0 mm 2 mps 758 mmHg 28%
    12:00 +37°C° 0 mm 3 mps 758 mmHg 25%
    13:00 +37°C° 0 mm 3 mps 757 mmHg 25%
    14:00 +37°C° 0 mm 3 mps 757 mmHg 25%
    15:00 +37°C° 0 mm 4 mps 756 mmHg 25%
    16:00 +36°C° 0 mm 3 mps 756 mmHg 28%
    17:00 +34°C° 0 mm 3 mps 757 mmHg 31%
    18:00 +33°C° 0 mm 3 mps 757 mmHg 35%
    19:00 +30°C° 0 mm 3 mps 758 mmHg 40%
    20:00 +28°C° 0 mm 3 mps 758 mmHg 45%
    21:00 +27°C° 0 mm 3 mps 759 mmHg 50%
    22:00 +27°C° 0 mm 3 mps 759 mmHg 51%
    23:00 +26°C° 0 mm 2 mps 759 mmHg 53%

    26 August, Sunday

    Time Temperature Precipitation Wind Pressure Humidity
    00:00 +26°C° 0 mm 2 mps 759 mmHg 54%
    01:00 +25°C° 0 mm 2 mps 759 mmHg 56%
    02:00 +25°C° 0 mm 1 mps 758 mmHg 57%
    03:00 +25°C° 0 mm 1 mps 758 mmHg 58%
    04:00 +25°C° 0 mm 2 mps 759 mmHg 63%
    05:00 +24°C° 0 mm 2 mps 759 mmHg 68%
    06:00 +24°C° 0 mm 3 mps 759 mmHg 73%
    07:00 +26°C° 0 mm 3 mps 760 mmHg 66%
    08:00 +29°C° 0 mm 3 mps 760 mmHg 59%
    09:00 +31°C° 0 mm 3 mps 760 mmHg 52%
    10:00 +34°C° 0 mm 3 mps 760 mmHg 46%
    11:00 +35°C° 0 mm 3 mps 759 mmHg 40%
    12:00 +37°C° 0 mm 3 mps 759 mmHg 35%
    13:00 +37°C° 0 mm 3 mps 758 mmHg 35%
    14:00 +37°C° 0 mm 3 mps 757 mmHg 35%
    15:00 +37°C° 0 mm 3 mps 756 mmHg 35%
    16:00 +36°C° 0 mm 3 mps 757 mmHg 38%
    17:00 +35°C° 0 mm 3 mps 757 mmHg 41%
    18:00 +34°C° 0 mm 2 mps 757 mmHg 44%
    19:00 +31°C° 0 mm 2 mps 758 mmHg 51%
    20:00 +30°C° 0 mm 3 mps 758 mmHg 59%
    21:00 +28°C° 0 mm 3 mps 759 mmHg 66%
    22:00 +28°C° 0.1 mm 2 mps 759 mmHg 70%
    23:00 +27°C° 0.1 mm 1 mps 759 mmHg 73%
    Show more